sat.trackr.live / text

‹ back to catalog

EUTELSAT HOTBIRD 13C

NORAD 33459 · 2008-065A

PAYLOAD ACTIVE UNKNOWN

§ Identity

Operator
Country
EUTE
Launch date
2008-12-20
Launch site
FRGUI
Launch vehicle
Mass (kg)
RCS (m²)
6.32

Purposes: comms

External: N2YO · Heavens-Above · Gunter

§ Orbital elements

Epoch: 2026-09-19T21:51:53.163072Z

Period
1,436.09 min
Inclination
3.1870°
Eccentricity
0.0003627
Mean motion
1.00272466 rev/d
Perigee alt
35,771.1 km
Apogee alt
35,801.7 km
Semi-major
42,164.5 km
B*
0.0000e+0
RAAN
77.9874°
Arg perigee
103.5565°
Mean anomaly
94.9579°
Rev number
4,829

§ Raw data

EUTELSAT HOTBIRD 13C1 33459U 08065A   26262.91103198 -.00000286  00000+0  00000+0 0  99982 33459   3.1870  77.9874 0003627 103.5565  94.9579  1.00272466 48294

JSON: /api/v1/satellites/33459 · /tle

For live sub-satellite position, see the globe view (requires WebGL).

§ Visibility from observer

Set your observer location to see the next 7 days of passes ≥ 10°. The values pass through the URL so the page stays shareable.

No JS? Fill the form by hand. The geolocation button needs JavaScript.